Location: Kelshall
(52.0000°N, 0.0500°W)
Time: 09:49:27
(UTC+00:00)

ATLAS CENTAUR R/B - Visible Passes

Search period start: 17 January 2021 00:00
Search period end: 27 January 2021 00:00
Orbit: 477 x 668 km, 64.7° (Epoch: 12 January)

Date Brightness Start Highest point End Pass type
(mag) Time Alt. Az. Time Alt. Az. Time Alt. Az.
17 Jan 3.9 07:21:45 10° S 07:24:51 25° ESE 07:27:55 10° ENE visible
20 Jan 4.7 05:52:41 10° SE 05:53:36 11° ESE 05:54:30 10° E visible
21 Jan 4.2 05:53:29 10° SSE 05:55:47 16° ESE 05:58:05 10° ENE visible
22 Jan 3.6 05:55:03 10° S 05:58:01 23° ESE 06:00:57 10° ENE visible
23 Jan 2.8 05:56:56 10° S 06:00:16 33° ESE 06:03:37 10° ENE visible
24 Jan 2.0 05:59:01 10° SSW 06:02:35 49° SE 06:06:09 10° NE visible
25 Jan 1.2 06:01:25 11° SW 06:04:55 74° SE 06:08:36 10° NE visible
26 Jan 3.9 04:28:37 14° ESE 04:28:57 14° ESE 04:30:59 10° E visible
26 Jan 0.9 06:04:50 20° SW 06:07:18 77° NW 06:11:00 10° NE visible
